| time (UTC) | temp F | wind direction | speed knots | gust knots | rain 1hr in | rain 24hr in | rain mn in | humidity % | barometer mb |
| 20260506013953 | 88 | 45 | 4.3 | 6.1 | 0.00 | 0.00 | 0.00 | 68 | 1014.6 |
| 20260506013453 | 87 | 68 | 2.6 | 6.1 | 0.00 | 0.00 | 0.00 | 69 | 1014.2 |
| 20260506012953 | 88 | 68 | 2.6 | 3.5 | 0.00 | 0.00 | 0.00 | 68 | 1014.6 |
| 20260506012453 | 90 | 90 | 1.7 | 2.6 | 0.00 | 0.00 | 0.00 | 65 | 1014.6 |
| 20260506011953 | 89 | 68 | 7.0 | 8.7 | 0.00 | 0.00 | 0.00 | 65 | 1014.6 |
| 20260506011453 | 89 | 45 | 7.8 | 9.6 | 0.00 | 0.00 | 0.00 | 64 | 1014.6 |
| 20260506010953 | 88 | 68 | 4.3 | 6.1 | 0.00 | 0.00 | 0.00 | 65 | 1014.6 |
| 20260506010453 | 88 | 68 | 7.0 | 7.8 | 0.00 | 0.00 | 0.00 | 64 | 1014.9 |
| 20260506005955 | 89 | 68 | 5.2 | 7.8 | 0.00 | 0.00 | 0.00 | 63 | 1014.6 |
| 20260506005453 | 89 | 68 | 6.1 | 7.8 | 0.00 | 0.00 | 0.00 | 65 | 1014.6 |
| 20260506004954 | 89 | 68 | 3.5 | 4.3 | 0.00 | 0.00 | 0.00 | 66 | 1014.6 |
| 20260506004454 | 87 | 45 | 2.6 | 4.3 | 0.00 | 0.00 | 0.00 | 68 | 1014.6 |
| 20260506003953 | 89 | 45 | 4.3 | 5.2 | 0.00 | 0.00 | 0.00 | 68 | 1014.6 |
| 20260506003453 | 87 | 68 | 7.0 | 8.7 | 0.00 | 0.00 | 0.00 | 64 | 1014.6 |
| 20260506002954 | 87 | 23 | 5.2 | 6.1 | 0.00 | 0.00 | 0.00 | 69 | 1014.6 |
| 20260506002454 | 87 | 68 | 6.1 | 8.7 | 0.00 | 0.00 | 0.00 | 68 | 1014.6 |
| 20260506001953 | 87 | 68 | 5.2 | 6.1 | 0.00 | 0.00 | 0.00 | 68 | 1014.6 |
| 20260506001454 | 87 | 68 | 4.3 | 6.1 | 0.00 | 0.00 | 0.00 | 70 | 1014.6 |
| 20260506000953 | 88 | 68 | 1.7 | 2.6 | 0.00 | 0.00 | 0.00 | 71 | 1014.6 |
| 20260506000454 | 87 | 68 | 1.7 | 4.3 | 0.00 | 0.00 | 0.00 | 72 | 1014.2 |
| 20260505235953 | 87 | 90 | 6.1 | 8.7 | 0.00 | 0.00 | 0.00 | 71 | 1014.6 |
| 20260505235454 | 87 | 23 | 2.6 | 4.3 | 0.00 | 0.00 | 0.00 | 74 | 1014.6 |
| 20260505234954 | 87 | 113 | 6.1 | 8.7 | 0.00 | 0.00 | 0.00 | 72 | 1014.6 |
| 20260505234454 | 86 | 135 | 3.5 | 6.1 | 0.00 | 0.00 | 0.00 | 74 | 1014.2 |
| 20260505233953 | 86 | 90 | 4.3 | 7.0 | 0.00 | 0.00 | 0.00 | 74 | 1014.6 |
| 20260505233453 | 86 | 90 | 1.7 | 2.6 | 0.00 | 0.00 | 0.00 | 75 | 1014.2 |
| 20260505232953 | 86 | 23 | 7.8 | 12.2 | 0.00 | 0.00 | 0.00 | 74 | 1014.2 |
| 20260505232453 | 86 | 90 | 2.6 | 4.3 | 0.00 | 0.00 | 0.00 | 74 | 1014.2 |
| 20260505231953 | 86 | 113 | 1.7 | 2.6 | 0.00 | 0.00 | 0.00 | 74 | 1014.2 |
| 20260505231453 | 86 | 68 | 1.7 | 1.7 | 0.00 | 0.00 | 0.00 | 74 | 1014.2 |
| 20260505230953 | 86 | 90 | 2.6 | 3.5 | 0.00 | 0.00 | 0.00 | 74 | 1013.9 |
| 20260505230454 | 86 | 90 | 1.7 | 3.5 | 0.00 | 0.00 | 0.00 | 73 | 1013.9 |
| 20260505225954 | 85 | 45 | 2.6 | 3.5 | 0.00 | 0.00 | 0.00 | 74 | 1013.9 |
| 20260505225454 | 85 | 90 | 3.5 | 5.2 | 0.00 | 0.00 | 0.00 | 73 | 1014.2 |
| 20260505224953 | 84 | 68 | 2.6 | 2.6 | 0.00 | 0.00 | 0.00 | 75 | 1013.9 |
| 20260505224453 | 84 | 45 | 8.7 | 11.3 | 0.00 | 0.00 | 0.00 | 75 | 1013.9 |
| 20260505223953 | 84 | 68 | 3.5 | 4.3 | 0.00 | 0.00 | 0.00 | 77 | 1013.5 |
| 20260505223453 | 83 | 68 | 4.3 | 6.1 | 0.00 | 0.00 | 0.00 | 77 | 1013.5 |
| 20260505222953 | 83 | 45 | 5.2 | 6.1 | 0.00 | 0.00 | 0.00 | 78 | 1013.5 |
| 20260505222453 | 82 | 68 | 6.1 | 7.8 | 0.00 | 0.00 | 0.00 | 79 | 1013.5 |
| 20260505221953 | 82 | 90 | 2.6 | 4.3 | 0.00 | 0.00 | 0.00 | 80 | 1013.5 |
| 20260505221453 | 82 | 68 | 4.3 | 7.8 | 0.00 | 0.00 | 0.00 | 81 | 1013.5 |
| 20260505220954 | 81 | 68 | 4.3 | 5.2 | 0.00 | 0.00 | 0.00 | 81 | 1013.2 |
| 20260505220453 | 81 | 68 | 2.6 | 4.3 | 0.00 | 0.00 | 0.00 | 82 | 1013.5 |
| 20260505215954 | 80 | 90 | 3.5 | 4.3 | 0.00 | 0.00 | 0.00 | 83 | 1013.5 |
| 20260505215453 | 80 | 68 | 4.3 | 7.8 | 0.00 | 0.00 | 0.00 | 83 | 1013.5 |
| 20260505214953 | 80 | 68 | 1.7 | 2.6 | 0.00 | 0.00 | 0.00 | 85 | 1013.2 |
| 20260505214453 | 80 | 90 | 4.3 | 7.0 | 0.00 | 0.00 | 0.00 | 84 | 1013.5 |
| 20260505213953 | 79 | 90 | 4.3 | 6.1 | 0.00 | 0.00 | 0.00 | 85 | 1013.5 |
| 20260505213454 | 79 | 68 | 7.0 | 9.6 | 0.00 | 0.00 | 0.00 | 85 | 1013.5 |
| 20260505212954 | 79 | 68 | 4.3 | 4.3 | 0.00 | 0.00 | 0.00 | 85 | 1013.2 |
| 20260505212453 | 79 | 68 | 6.1 | 8.7 | 0.00 | 0.00 | 0.00 | 85 | 1013.2 |
| 20260505211954 | 79 | 68 | 5.2 | 6.1 | 0.00 | 0.00 | 0.00 | 86 | 1013.2 |
| 20260505211453 | 79 | 68 | 2.6 | 3.5 | 0.00 | 0.00 | 0.00 | 86 | 1013.5 |
| 20260505210953 | 79 | 68 | 5.2 | 7.0 | 0.00 | 0.00 | 0.00 | 86 | 1013.5 |
| 20260505210453 | 79 | 90 | 1.7 | 2.6 | 0.00 | 0.00 | 0.00 | 86 | 1013.2 |
| 20260505205954 | 79 | 45 | 2.6 | 2.6 | 0.00 | 0.00 | 0.00 | 85 | 1013.2 |
| 20260505205454 | 79 | 45 | 5.2 | 6.1 | 0.00 | 0.00 | 0.00 | 86 | 1013.2 |
| 20260505204953 | 79 | 68 | 2.6 | 4.3 | 0.00 | 0.00 | 0.00 | 86 | 1013.2 |
| 20260505204455 | 79 | 68 | 2.6 | 3.5 | 0.00 | 0.00 | 0.00 | 85 | 1013.2 |
| 20260505203954 | 79 | 45 | 1.7 | 2.6 | 0.00 | 0.00 | 0.00 | 85 | 1013.2 |
| 20260505203453 | 79 | 45 | 3.5 | 4.3 | 0.00 | 0.00 | 0.00 | 86 | 1012.9 |
| 20260505202954 | 79 | 68 | 2.6 | 4.3 | 0.00 | 0.00 | 0.00 | 86 | 1012.9 |
| 20260505202455 | 79 | 113 | 4.3 | 6.1 | 0.00 | 0.00 | 0.00 | 86 | 1012.9 |
| 20260505201954 | 79 | 90 | 2.6 | 3.5 | 0.00 | 0.00 | 0.00 | 86 | 1013.2 |
| 20260505201454 | 79 | 23 | 3.5 | 4.3 | 0.00 | 0.00 | 0.00 | 86 | 1012.9 |
| 20260505200954 | 79 | 90 | 6.1 | 7.0 | 0.00 | 0.00 | 0.00 | 86 | 1012.5 |
| 20260505200453 | 79 | 90 | 3.5 | 4.3 | 0.00 | 0.00 | 0.00 | 87 | 1012.9 |
| 20260505195954 | 79 | 90 | 2.6 | 3.5 | 0.00 | 0.00 | 0.00 | 86 | 1012.5 |
| 20260505195454 | 79 | 90 | 5.2 | 6.1 | 0.00 | 0.00 | 0.00 | 86 | 1012.5 |
| 20260505194953 | 79 | 90 | 6.1 | 7.8 | 0.00 | 0.00 | 0.00 | 85 | 1012.5 |
| 20260505194453 | 79 | 113 | 4.3 | 5.2 | 0.00 | 0.00 | 0.00 | 85 | 1012.5 |
| 20260505193953 | 79 | 45 | 3.5 | 4.3 | 0.00 | 0.00 | 0.00 | 85 | 1012.5 |
| 20260505193453 | 79 | 90 | 1.7 | 1.7 | 0.00 | 0.00 | 0.00 | 84 | 1012.5 |
| 20260505192954 | 79 | 113 | 3.5 | 5.2 | 0.00 | 0.00 | 0.00 | 84 | 1012.5 |
| 20260505192453 | 78 | 90 | 3.5 | 4.3 | 0.00 | 0.00 | 0.00 | 83 | 1012.2 |
| 20260505191953 | 79 | 68 | 2.6 | 3.5 | 0.00 | 0.00 | 0.00 | 82 | 1012.2 |
| 20260505191453 | 79 | 68 | 3.5 | 5.2 | 0.00 | 0.00 | 0.00 | 82 | 1012.5 |
| 20260505190953 | 79 | 68 | 2.6 | 4.3 | 0.00 | 0.00 | 0.00 | 83 | 1012.5 |
| 20260505190453 | 79 | 68 | 3.5 | 4.3 | 0.00 | 0.00 | 0.00 | 84 | 1012.2 |
| 20260505185957 | 79 | 90 | 5.2 | 7.0 | 0.00 | 0.00 | 0.00 | 84 | 1012.2 |
| 20260505185453 | 79 | 90 | 4.3 | 5.2 | 0.00 | 0.00 | 0.00 | 87 | 1012.2 |
| 20260505184953 | 79 | 90 | 3.5 | 6.1 | 0.00 | 0.00 | 0.00 | 87 | 1012.2 |
| 20260505184454 | 79 | 90 | 3.5 | 6.1 | 0.00 | 0.00 | 0.00 | 87 | 1012.5 |
| 20260505183954 | 79 | 90 | 4.3 | 6.1 | 0.00 | 0.00 | 0.00 | 87 | 1012.5 |
| 20260505183454 | 79 | 68 | 4.3 | 7.0 | 0.00 | 0.00 | 0.00 | 87 | 1012.2 |
| 20260505182953 | 79 | 90 | 2.6 | 4.3 | 0.00 | 0.00 | 0.00 | 88 | 1012.2 |
| 20260505182453 | 79 | 68 | 4.3 | 6.1 | 0.00 | 0.00 | 0.00 | 88 | 1012.2 |
| 20260505181954 | 79 | 68 | 4.3 | 6.1 | 0.00 | 0.00 | 0.00 | 88 | 1012.5 |
| 20260505181454 | 79 | 68 | 7.0 | 9.6 | 0.00 | 0.00 | 0.00 | 89 | 1012.5 |
| 20260505180954 | 79 | 90 | 2.6 | 4.3 | 0.00 | 0.00 | 0.00 | 88 | 1012.5 |
| 20260505180454 | 79 | 90 | 4.3 | 6.1 | 0.00 | 0.00 | 0.00 | 88 | 1012.9 |
| 20260505175954 | 79 | 90 | 4.3 | 6.1 | 0.00 | 0.00 | 0.00 | 88 | 1012.9 |
| 20260505175454 | 79 | 45 | 3.5 | 5.2 | 0.00 | 0.00 | 0.00 | 88 | 1012.9 |
| 20260505174954 | 79 | 68 | 6.1 | 7.8 | 0.00 | 0.00 | 0.00 | 88 | 1012.9 |
| 20260505174453 | 79 | 68 | 6.1 | 8.7 | 0.00 | 0.00 | 0.00 | 88 | 1012.9 |
| 20260505173954 | 79 | 68 | 5.2 | 7.8 | 0.00 | 0.00 | 0.00 | 88 | 1012.9 |
| 20260505173453 | 79 | 45 | 5.2 | 6.1 | 0.00 | 0.00 | 0.00 | 89 | 1012.9 |
| 20260505172954 | 80 | 90 | 4.3 | 5.2 | 0.00 | 0.00 | 0.00 | 88 | 1013.2 |
| 20260505172453 | 79 | 90 | 4.3 | 7.0 | 0.00 | 0.00 | 0.00 | 89 | 1012.9 |
| 20260505171954 | 80 | 68 | 4.3 | 6.1 | 0.00 | 0.00 | 0.00 | 88 | 1013.2 |
| 20260505171455 | 80 | 45 | 4.3 | 6.1 | 0.00 | 0.00 | 0.00 | 88 | 1013.2 |
| 20260505170953 | 80 | 23 | 6.1 | 6.1 | 0.00 | 0.00 | 0.00 | 88 | 1013.2 |
| 20260505170453 | 80 | 90 | 3.5 | 5.2 | 0.00 | 0.00 | 0.00 | 88 | 1013.5 |
| 20260505165953 | 80 | 90 | 5.2 | 7.0 | 0.00 | 0.00 | 0.00 | 88 | 1013.2 |
| 20260505165454 | 80 | 68 | 4.3 | 6.1 | 0.00 | 0.00 | 0.00 | 88 | 1013.2 |
| 20260505164953 | 80 | 90 | 5.2 | 6.1 | 0.00 | 0.00 | 0.00 | 88 | 1013.5 |
| 20260505164454 | 80 | 68 | 6.1 | 8.7 | 0.00 | 0.00 | 0.00 | 88 | 1013.5 |
| 20260505163954 | 80 | 68 | 6.1 | 7.8 | 0.00 | 0.00 | 0.00 | 88 | 1013.5 |
| 20260505163005 | 80 | 68 | 4.3 | 6.1 | 0.00 | 0.00 | 0.00 | 88 | 1013.5 |
| 20260505162453 | 80 | 68 | 5.2 | 6.1 | 0.00 | 0.00 | 0.00 | 88 | 1013.5 |
| 20260505161954 | 80 | 68 | 7.0 | 10.4 | 0.00 | 0.00 | 0.00 | 87 | 1013.5 |
| 20260505161453 | 80 | 45 | 4.3 | 5.2 | 0.00 | 0.00 | 0.00 | 87 | 1013.5 |
| 20260505160954 | 80 | 68 | 5.2 | 6.1 | 0.00 | 0.00 | 0.00 | 87 | 1013.5 |
| 20260505160454 | 80 | 90 | 5.2 | 7.0 | 0.00 | 0.00 | 0.00 | 87 | 1013.5 |
| 20260505152953 | 80 | 90 | 5.2 | 6.1 | 0.00 | 0.00 | 0.00 | 87 | 1013.9 |
| 20260505152453 | 80 | 68 | 7.0 | 8.7 | 0.00 | 0.00 | 0.00 | 87 | 1014.2 |
| 20260505151953 | 80 | 68 | 4.3 | 6.1 | 0.00 | 0.00 | 0.00 | 86 | 1013.9 |
| 20260505151453 | 80 | 90 | 3.5 | 4.3 | 0.00 | 0.00 | 0.00 | 86 | 1013.9 |
| 20260505150953 | 80 | 68 | 4.3 | 5.2 | 0.00 | 0.00 | 0.00 | 86 | 1014.2 |
| 20260505150453 | 81 | 45 | 5.2 | 6.1 | 0.00 | 0.00 | 0.00 | 85 | 1014.2 |
| 20260505140454 | 81 | 113 | 6.1 | 8.7 | 0.00 | 0.00 | 0.00 | 87 | 1014.2 |
| 20260505124954 | 81 | 68 | 5.2 | 5.2 | 0.00 | 0.00 | 0.00 | 86 | 1013.9 |
| 20260505124453 | 81 | 68 | 7.0 | 8.7 | 0.00 | 0.00 | 0.00 | 85 | 1013.5 |
| 20260505123953 | 81 | 45 | 5.2 | 7.0 | 0.00 | 0.00 | 0.00 | 86 | 1013.5 |
| 20260505123454 | 81 | 68 | 3.5 | 4.3 | 0.00 | 0.00 | 0.00 | 86 | 1013.5 |
| 20260505122953 | 81 | 45 | 6.1 | 7.0 | 0.00 | 0.00 | 0.00 | 86 | 1013.2 |
| 20260505122453 | 81 | 90 | 6.1 | 7.0 | 0.00 | 0.00 | 0.00 | 86 | 1013.2 |
| 20260505121953 | 81 | 0 | 7.0 | 8.7 | 0.00 | 0.00 | 0.00 | 86 | 1013.5 |
| 20260505121454 | 81 | 68 | 7.8 | 10.4 | 0.00 | 0.00 | 0.00 | 86 | 1013.2 |
| 20260505120954 | 81 | 113 | 7.0 | 10.4 | 0.00 | 0.00 | 0.00 | 85 | 1013.2 |
| 20260505120454 | 81 | 45 | 5.2 | 7.0 | 0.00 | 0.00 | 0.00 | 86 | 1013.2 |
| 20260505115953 | 81 | 45 | 7.8 | 11.3 | 0.00 | 0.00 | 0.00 | 86 | 1013.2 |
| 20260505115453 | 81 | 45 | 6.1 | 7.0 | 0.00 | 0.00 | 0.00 | 85 | 1013.2 |
| 20260505114954 | 81 | 68 | 7.8 | 10.4 | 0.00 | 0.00 | 0.00 | 85 | 1012.9 |
| 20260505114453 | 81 | 68 | 7.0 | 9.6 | 0.00 | 0.00 | 0.00 | 85 | 1012.9 |
| 20260505113954 | 81 | 68 | 6.1 | 7.8 | 0.00 | 0.00 | 0.00 | 85 | 1012.9 |
| 20260505113453 | 81 | 45 | 6.1 | 7.0 | 0.00 | 0.00 | 0.00 | 85 | 1012.9 |
| 20260505113000 | 82 | 45 | 6.1 | 7.8 | 0.00 | 0.00 | 0.00 | 85 | 1012.9 |
| 20260505112453 | 82 | 45 | 9.6 | 13.0 | 0.00 | 0.00 | 0.00 | 85 | 1012.9 |
| 20260505111953 | 81 | 68 | 9.6 | 12.2 | 0.00 | 0.00 | 0.00 | 85 | 1012.9 |
| 20260505111454 | 81 | 68 | 7.0 | 9.6 | 0.00 | 0.00 | 0.00 | 86 | 1012.9 |
| 20260505110953 | 82 | 90 | 6.1 | 8.7 | 0.00 | 0.00 | 0.00 | 85 | 1012.9 |
| 20260505110453 | 81 | 68 | 7.0 | 8.7 | 0.00 | 0.00 | 0.00 | 85 | 1012.9 |
| 20260505101954 | 82 | 23 | 7.0 | 8.7 | 0.00 | 0.00 | 0.00 | 86 | 1012.5 |
| 20260505101453 | 82 | 45 | 6.1 | 7.8 | 0.00 | 0.00 | 0.00 | 85 | 1012.5 |
| 20260505100953 | 82 | 23 | 4.3 | 6.1 | 0.00 | 0.00 | 0.00 | 85 | 1012.5 |
| 20260505100453 | 82 | 90 | 5.2 | 8.7 | 0.00 | 0.00 | 0.00 | 85 | 1012.2 |
| 20260505095953 | 82 | 68 | 7.0 | 8.7 | 0.00 | 0.00 | 0.00 | 84 | 1012.5 |
| 20260505095454 | 83 | 90 | 8.7 | 12.2 | 0.00 | 0.00 | 0.00 | 82 | 1012.2 |
| 20260505094953 | 83 | 68 | 6.1 | 7.0 | 0.00 | 0.00 | 0.00 | 81 | 1012.2 |
| 20260505094454 | 83 | 338 | 6.1 | 6.1 | 0.00 | 0.00 | 0.00 | 80 | 1012.2 |
| 20260505093953 | 83 | 68 | 6.1 | 7.8 | 0.00 | 0.00 | 0.00 | 81 | 1012.2 |
| 20260505093453 | 83 | 45 | 7.0 | 10.4 | 0.00 | 0.00 | 0.00 | 79 | 1012.2 |
| 20260505092954 | 84 | 68 | 6.1 | 8.7 | 0.00 | 0.00 | 0.00 | 78 | 1012.2 |
| 20260505092453 | 84 | 90 | 7.8 | 8.7 | 0.00 | 0.00 | 0.00 | 78 | 1011.9 |
| 20260505091953 | 84 | 90 | 5.2 | 7.8 | 0.00 | 0.00 | 0.00 | 78 | 1011.9 |
| 20260505091454 | 84 | 90 | 7.8 | 12.2 | 0.00 | 0.00 | 0.00 | 77 | 1011.9 |
| 20260505090954 | 85 | 68 | 7.8 | 9.6 | 0.00 | 0.00 | 0.00 | 76 | 1011.9 |
| 20260505090453 | 85 | 68 | 6.1 | 9.6 | 0.00 | 0.00 | 0.00 | 77 | 1011.5 |
| 20260505085953 | 85 | 90 | 7.0 | 10.4 | 0.00 | 0.00 | 0.00 | 75 | 1011.9 |
| 20260505085453 | 85 | 68 | 10.4 | 13.0 | 0.00 | 0.00 | 0.00 | 75 | 1011.5 |
| 20260505084953 | 86 | 45 | 8.7 | 11.3 | 0.00 | 0.00 | 0.00 | 75 | 1011.5 |
| 20260505084454 | 86 | 90 | 7.8 | 10.4 | 0.00 | 0.00 | 0.00 | 75 | 1011.5 |
| 20260505083954 | 86 | 68 | 5.2 | 6.1 | 0.00 | 0.00 | 0.00 | 76 | 1011.5 |
| 20260505083453 | 86 | 68 | 9.6 | 11.3 | 0.00 | 0.00 | 0.00 | 72 | 1011.5 |
| 20260505082953 | 87 | 90 | 7.8 | 9.6 | 0.00 | 0.00 | 0.00 | 73 | 1011.5 |
| 20260505082453 | 88 | 90 | 5.2 | 7.8 | 0.00 | 0.00 | 0.00 | 73 | 1011.5 |
| 20260505081953 | 87 | 90 | 9.6 | 11.3 | 0.00 | 0.00 | 0.00 | 73 | 1011.2 |
| 20260505081453 | 87 | 45 | 13.0 | 16.5 | 0.00 | 0.00 | 0.00 | 71 | 1011.2 |
| 20260505080953 | 87 | 68 | 8.7 | 11.3 | 0.00 | 0.00 | 0.00 | 72 | 1011.2 |
| 20260505080454 | 88 | 68 | 10.4 | 13.9 | 0.00 | 0.00 | 0.00 | 72 | 1011.2 |
| 20260505075954 | 87 | 45 | 7.0 | 9.6 | 0.00 | 0.00 | 0.00 | 75 | 1011.2 |
| 20260505075453 | 88 | 68 | 8.7 | 11.3 | 0.00 | 0.00 | 0.00 | 73 | 1011.2 |
| 20260505074953 | 88 | 45 | 8.7 | 10.4 | 0.00 | 0.00 | 0.00 | 73 | 1011.2 |
| 20260505074453 | 89 | 113 | 7.8 | 9.6 | 0.00 | 0.00 | 0.00 | 72 | 1011.5 |
| 20260505073953 | 89 | 113 | 5.2 | 7.8 | 0.00 | 0.00 | 0.00 | 71 | 1011.5 |
| 20260505073454 | 89 | 113 | 6.1 | 7.8 | 0.00 | 0.00 | 0.00 | 72 | 1011.2 |
| 20260505072954 | 90 | 90 | 3.5 | 4.3 | 0.00 | 0.00 | 0.00 | 69 | 1011.5 |
| 20260505072453 | 90 | 90 | 5.2 | 6.1 | 0.00 | 0.00 | 0.00 | 70 | 1011.2 |
| 20260505071954 | 90 | 113 | 7.0 | 8.7 | 0.00 | 0.00 | 0.00 | 70 | 1011.5 |
| 20260505071454 | 90 | 68 | 7.0 | 8.7 | 0.00 | 0.00 | 0.00 | 69 | 1011.5 |
| 20260505070953 | 90 | 90 | 5.2 | 6.1 | 0.00 | 0.00 | 0.00 | 70 | 1011.5 |
| 20260505070456 | 90 | 113 | 4.3 | 6.1 | 0.00 | 0.00 | 0.00 | 68 | 1011.5 |
| 20260505065953 | 89 | 90 | 7.0 | 10.4 | 0.00 | 0.00 | 0.00 | 67 | 1011.5 |
| 20260505065453 | 90 | 45 | 3.5 | 4.3 | 0.00 | 0.00 | 0.00 | 71 | 1011.5 |
| 20260505064954 | 90 | 68 | 7.8 | 11.3 | 0.00 | 0.00 | 0.00 | 71 | 1011.5 |
| 20260505064454 | 89 | 68 | 7.8 | 10.4 | 0.00 | 0.00 | 0.00 | 73 | 1011.5 |
| 20260505063954 | 89 | 45 | 7.8 | 13.9 | 0.00 | 0.00 | 0.00 | 72 | 1011.5 |
| 20260505063453 | 89 | 68 | 8.7 | 10.4 | 0.00 | 0.00 | 0.00 | 72 | 1011.9 |
| 20260505062953 | 90 | 113 | 4.3 | 6.1 | 0.00 | 0.00 | 0.00 | 70 | 1011.9 |
| 20260505062453 | 90 | 90 | 8.7 | 12.2 | 0.00 | 0.00 | 0.00 | 70 | 1011.9 |
| 20260505061953 | 90 | 90 | 7.8 | 9.6 | 0.00 | 0.00 | 0.00 | 71 | 1011.9 |
| 20260505061453 | 91 | 68 | 4.3 | 6.1 | 0.00 | 0.00 | 0.00 | 68 | 1011.9 |
| 20260505060954 | 90 | 68 | 5.2 | 6.1 | 0.00 | 0.00 | 0.00 | 69 | 1011.9 |
| 20260505060453 | 91 | 68 | 7.0 | 9.6 | 0.00 | 0.00 | 0.00 | 70 | 1011.9 |
| 20260505055954 | 90 | 90 | 7.0 | 9.6 | 0.00 | 0.00 | 0.00 | 71 | 1011.9 |
| 20260505055453 | 90 | 68 | 7.8 | 9.6 | 0.00 | 0.00 | 0.00 | 69 | 1011.9 |
| 20260505054955 | 91 | 90 | 1.7 | 2.6 | 0.00 | 0.00 | 0.00 | 70 | 1011.9 |
| 20260505054454 | 91 | 68 | 9.6 | 12.2 | 0.00 | 0.00 | 0.00 | 68 | 1012.2 |
| 20260505053953 | 90 | 113 | 5.2 | 7.0 | 0.00 | 0.00 | 0.00 | 69 | 1012.2 |
| 20260505053453 | 91 | 45 | 5.2 | 6.1 | 0.00 | 0.00 | 0.00 | 68 | 1012.2 |
| 20260505052953 | 90 | 68 | 6.1 | 8.7 | 0.00 | 0.00 | 0.00 | 69 | 1012.2 |
| 20260505052454 | 89 | 68 | 7.0 | 8.7 | 0.00 | 0.00 | 0.00 | 71 | 1012.2 |
| 20260505051953 | 89 | 90 | 8.7 | 10.4 | 0.00 | 0.00 | 0.00 | 71 | 1012.2 |
| 20260505051454 | 90 | 90 | 7.8 | 11.3 | 0.00 | 0.00 | 0.00 | 70 | 1012.5 |
| 20260505050953 | 91 | 68 | 5.2 | 7.8 | 0.00 | 0.00 | 0.00 | 69 | 1012.5 |
| 20260505050453 | 90 | 135 | 3.5 | 4.3 | 0.00 | 0.00 | 0.00 | 70 | 1012.5 |
| 20260505041453 | 91 | 90 | 4.3 | 6.1 | 0.00 | 0.00 | 0.00 | 71 | 1013.2 |
| 20260505040954 | 90 | 90 | 0.9 | 1.7 | 0.00 | 0.00 | 0.00 | 69 | 1013.5 |
| 20260505040453 | 92 | 90 | 2.6 | 3.5 | 0.00 | 0.00 | 0.00 | 67 | 1013.5 |
| 20260505035953 | 91 | 23 | 3.5 | 4.3 | 0.00 | 0.00 | 0.00 | 71 | 1013.5 |
| 20260505035453 | 91 | 68 | 2.6 | 4.3 | 0.00 | 0.00 | 0.00 | 70 | 1013.5 |
| 20260505034953 | 91 | 90 | 1.7 | 2.6 | 0.00 | 0.00 | 0.00 | 70 | 1013.5 |
| 20260505034454 | 90 | 90 | 2.6 | 4.3 | 0.00 | 0.00 | 0.00 | 74 | 1013.5 |
| 20260505033953 | 90 | 68 | 2.6 | 2.6 | 0.00 | 0.00 | 0.00 | 72 | 1013.5 |
| 20260505033453 | 90 | 45 | 2.6 | 3.5 | 0.00 | 0.00 | 0.00 | 73 | 1013.5 |
| 20260505032953 | 88 | 90 | 4.3 | 6.1 | 0.00 | 0.00 | 0.00 | 74 | 1013.5 |
| 20260505032454 | 88 | 113 | 1.7 | 1.7 | 0.00 | 0.00 | 0.00 | 78 | 1013.9 |
| 20260505031954 | 87 | 68 | 1.7 | 2.6 | 0.00 | 0.00 | 0.00 | 79 | 1013.9 |
| 20260505031454 | 86 | 90 | 1.7 | 1.7 | 0.00 | 0.00 | 0.00 | 81 | 1014.2 |
| 20260505030953 | 86 | 68 | 3.5 | 4.3 | 0.00 | 0.00 | 0.00 | 80 | 1014.2 |
| 20260505030453 | 87 | 90 | 2.6 | 2.6 | 0.00 | 0.00 | 0.00 | 79 | 1013.9 |
| 20260505025954 | 86 | 68 | 4.3 | 7.8 | 0.00 | 0.00 | 0.00 | 79 | 1013.9 |
| 20260505025453 | 87 | 90 | 2.6 | 4.3 | 0.00 | 0.00 | 0.00 | 78 | 1013.9 |
| 20260505024954 | 89 | 45 | 1.7 | 2.6 | 0.00 | 0.00 | 0.00 | 78 | 1014.2 |
| 20260505024453 | 86 | 135 | 6.1 | 13.0 | 0.00 | 0.00 | 0.00 | 78 | 1014.2 |
| 20260505023953 | 86 | 68 | 2.6 | 5.2 | 0.00 | 0.00 | 0.00 | 79 | 1013.9 |
| 20260505023453 | 85 | 45 | 6.1 | 7.8 | 0.00 | 0.00 | 0.00 | 79 | 1014.2 |
| 20260505022953 | 85 | 45 | 7.0 | 8.7 | 0.00 | 0.00 | 0.00 | 79 | 1014.2 |
| 20260505022457 | 85 | 135 | 4.3 | 5.2 | 0.00 | 0.00 | 0.00 | 79 | 1014.2 |
| 20260505021953 | 84 | 68 | 5.2 | 6.1 | 0.00 | 0.00 | 0.00 | 80 | 1014.2 |
| 20260505021453 | 82 | 68 | 3.5 | 6.1 | 0.00 | 0.00 | 0.00 | 89 | 1014.6 |
| 20260505020954 | 81 | 68 | 6.1 | 7.8 | 0.00 | 0.00 | 0.00 | 91 | 1014.6 |
| 20260505020454 | 82 | 23 | 9.6 | 13.0 | 0.00 | 0.00 | 0.00 | 87 | 1014.2 |
| 20260505015953 | 85 | 90 | 2.6 | 4.3 | 0.00 | 0.00 | 0.00 | 81 | 1014.2 |
| 20260505015453 | 86 | 68 | 2.6 | 4.3 | 0.00 | 0.00 | 0.00 | 80 | 1014.2 |
| 20260505014953 | 85 | 90 | 4.3 | 6.1 | 0.00 | 0.00 | 0.00 | 82 | 1014.6 |
| 20260505014453 | 85 | 68 | 5.2 | 7.0 | 0.00 | 0.00 | 0.00 | 79 | 1014.2 |